Retour au catalogue

KINEIS-5A

ActifCommunicationsSSO
NORAD 62084·PAYLOAD·🇫🇷 France

Lancé Nov 25, 2024 depuis Rocket Lab Launch Complex 1

Loading…

Prochains Passages (prochaines 24 heures)

TLE

FraisSource: Space-Track

Époque: Sep 14, 2026, 14:04 UTC

1 62084U 24219D   26257.58651693 -.00002285  00000-0 -35428-3 0  9997
2 62084  97.9043  54.3127 0005019  36.6223 323.5327 14.72276712 96923

Suivez KINEIS-5A en temps réel avec AllMySat

Download on the App Store